Wind_Speed
16 16 16 14 11 9 10 10 11 12 14 15 16 17 17 16 15 14 12 11 11 13 14 15 15 15 17 16 15 14 13 12 12 12 12 11 10 10 9 8 8 8 9 10 11 11 12 12 12 13 13 13 13 13 13 13 14 14 14 13 13 13 14 14 14 15 15 15 14 14 16 17 17 16 16 17 17 16 17 17 17 17 19 22 29
14 15 16 15 13 11 12 13 14 15 15 16 16 17 16 15 15 15 14 13 13 14 15 15 14 14 16 17 16 16 15 14 13 12 12 12 11 10 10 9 9 9 9 10 11 12 13 13 14 14 14 15 15 15 15 14 15 15 15 14 14 14 14 14 14 14 15 15 15 15 15 15 15 15 16 16 17 17 18 17 15 14 14 15 21
15 16 16 16 15 14 15 16 17 16 16 16 17 16 16 15 15 16 15 14 13 14 16 16 13 13 15 16 16 16 16 16 15 15 13 12 12 12 11 10 10 9 9 10 11 12 13 14 15 15 16 16 16 16 16 16 16 17 16 16 15 15 15 15 14 14 15 16 16 16 16 14 14 14 15 16 17 18 19 18 16 15 14 14 15
16 15 14 15 15 14 16 17 17 16 15 16 16 16 15 15 15 16 16 16 16 16 16 17 14 12 13 14 15 16 16 16 16 15 15 14 13 12 12 11 11 11 10 11 11 12 13 14 15 15 16 17 17 17 17 18 18 18 18 17 16 16 16 16 15 15 15 15 16 16 16 16 16 16 16 16 18 19 19 17 16 16 16 16 15
18 16 14 13 13 14 14 16 17 15 15 16 16 16 16 16 16 16 16 18 19 19 17 17 15 12 12 13 14 15 15 14 14 14 14 14 13 13 13 12 11 11 11 12 12 12 13 13 13 14 15 16 16 17 17 18 17 18 18 17 17 17 17 17 16 15 15 15 15 15 16 17 18 18 17 16 17 17 17 17 16 16 16 17 17
15 14 13 13 12 12 13 13 14 13 14 15 16 16 16 16 16 16 16 18 21 22 19 18 16 13 12 13 13 14 14 13 13 13 13 13 13 13 12 12 12 11 11 12 12 13 13 13 13 13 14 14 15 16 16 17 17 17 17 17 17 18 18 18 17 16 16 15 15 15 17 18 18 18 18 17 16 16 16 17 17 16 14 15 16
13 13 13 12 11 10 10 11 12 13 14 15 15 16 16 16 16 16 16 18 21 23 21 18 17 15 13 13 13 13 13 13 13 12 12 12 13 13 12 12 12 11 11 11 12 12 12 12 12 13 13 13 14 15 15 16 17 17 18 18 18 19 19 19 18 18 18 17 16 17 17 18 19 19 19 18 17 17 17 17 17 16 14 14 15
15 15 13 11 9 8 8 9 11 12 13 14 16 17 17 17 17 16 16 17 20 22 22 21 19 18 16 13 13 13 13 14 13 12 12 12 13 14 13 12 11 11 11 11 11 12 12 12 12 12 12 13 14 14 15 16 17 17 18 18 19 19 20 20 20 19 19 18 18 18 18 19 19 20 20 20 18 17 16 17 17 17 16 16 17
17 16 12 9 8 8 8 9 10 11 12 14 16 17 17 17 17 17 17 18 19 20 22 22 21 20 18 14 13 13 14 15 15 14 13 13 13 14 14 13 12 11 11 11 11 12 12 12 12 12 12 13 14 14 15 16 17 17 18 19 19 20 20 21 21 20 19 19 20 20 19 20 20 21 22 21 20 19 19 20 20 18 18 18 19
15 12 10 9 10 10 11 12 12 12 13 14 15 16 17 18 18 18 19 20 21 20 21 22 21 20 19 15 14 13 14 16 17 16 15 14 14 14 15 14 12 10 10 10 11 11 12 12 12 13 13 13 14 14 15 16 17 17 18 19 19 20 20 20 21 20 20 19 19 20 20 21 22 22 23 23 23 23 23 23 23 22 20 21 21
12 9 9 10 10 10 12 13 14 15 15 15 15 16 18 19 20 20 21 22 23 21 21 23 25 25 24 21 17 15 14 16 17 18 17 15 15 15 15 14 12 10 9 9 10 11 11 12 12 12 13 13 13 14 15 15 16 17 17 18 18 18 19 19 20 20 20 19 19 19 19 20 22 23 23 24 24 25 25 25 25 24 22 23 23
14 12 11 10 12 13 14 15 16 17 17 16 16 17 19 20 21 22 22 23 23 22 22 24 27 32 34 30 24 18 15 15 17 19 18 16 15 15 15 14 12 9 8 8 9 10 10 11 11 12 12 13 13 14 14 15 15 16 16 16 17 17 17 17 18 18 18 18 18 18 18 19 21 22 23 24 25 25 26 26 25 24 24 24 25
16 15 14 14 15 16 16 17 17 17 18 18 18 19 19 20 20 22 23 23 23 22 23 26 28 32 37 36 29 21 15 15 17 19 19 17 16 15 15 14 12 9 8 8 8 9 9 10 11 11 12 12 13 13 14 14 15 15 15 15 15 16 15 15 16 16 16 16 16 17 17 18 19 21 22 23 24 25 25 25 25 24 24 24 25
19 19 18 18 19 17 17 17 17 18 19 20 20 20 20 20 21 25 26 25 23 22 25 29 29 31 35 33 27 20 17 16 18 20 20 18 16 16 15 14 11 9 8 8 9 9 9 10 10 11 11 12 12 13 13 13 13 14 14 14 15 15 15 15 15 15 15 15 15 16 16 17 18 19 20 21 22 22 22 22 22 23 23 23 24
21 21 20 20 20 18 17 18 19 20 21 21 22 21 22 23 25 28 29 25 21 21 25 28 29 31 32 27 23 19 18 18 19 20 20 18 17 16 15 14 12 9 9 9 10 10 10 10 10 11 11 11 12 12 13 13 13 13 13 13 14 15 15 15 15 15 15 15 15 16 16 16 17 17 18 18 18 18 18 18 19 20 20 20 21
21 21 21 21 21 21 20 20 21 21 21 21 21 22 24 24 24 25 24 21 19 21 23 23 25 29 28 23 19 18 19 20 20 21 20 19 18 17 16 15 13 11 10 11 12 12 12 12 11 11 11 10 11 11 12 13 13 13 13 13 14 14 15 15 15 15 15 15 15 16 16 16 16 16 16 16 16 16 15 15 16 17 18 18 18
21 22 23 23 23 22 21 21 20 20 20 20 20 21 22 22 22 22 22 22 22 22 22 21 21 23 24 22 18 18 21 22 21 21 21 20 19 18 16 15 14 13 12 12 13 13 13 13 13 12 12 11 11 11 11 12 13 14 14 14 14 14 15 15 15 15 15 15 15 15 15 15 15 15 15 15 14 14 13 14 14 15 16 16 16
22 23 24 23 21 19 19 18 18 18 18 19 19 20 20 19 19 20 21 21 21 22 23 22 20 19 21 22 20 19 22 23 23 22 21 21 21 20 18 16 15 14 13 13 14 14 14 14 13 13 13 13 12 12 12 12 13 14 15 15 16 16 16 15 15 15 15 15 15 15 15 15 15 15 15 14 14 14 13 13 13 14 15 14 14
21 21 21 19 18 17 17 17 17 18 18 19 19 19 19 18 17 17 18 18 19 20 21 22 22 20 19 19 19 19 21 24 25 23 20 20 21 20 19 19 16 14 14 14 14 14 14 14 14 14 15 15 15 14 14 13 13 13 14 15 16 17 17 17 16 16 16 15 15 15 15 15 15 15 15 14 14 14 13 13 13 14 14 15 15
17 17 17 17 17 17 17 17 18 19 19 20 20 20 21 20 19 19 18 18 19 20 20 20 19 16 14 15 16 19 21 23 25 23 19 19 21 19 19 20 20 17 15 15 15 16 16 15 15 15 15 15 15 16 16 15 14 14 15 15 16 17 17 18 18 17 17 16 16 16 16 15 15 15 15 14 14 14 14 13 13 13 14 15 15
17 16 16 17 18 18 18 19 20 20 20 20 21 22 22 22 22 22 22 22 21 21 20 16 13 14 16 18 18 20 22 23 24 23 20 17 18 18 18 19 21 20 19 18 18 18 18 18 18 17 16 16 15 16 17 17 16 16 16 16 15 16 16 17 18 19 19 18 18 18 17 16 16 16 16 15 15 15 14 14 14 14 14 14 15
19 18 19 20 21 21 21 21 22 21 21 21 22 23 23 24 24 24 25 25 25 24 22 18 17 20 24 24 23 23 24 23 22 23 22 19 18 19 19 19 20 22 22 22 22 21 20 20 21 21 20 18 17 17 17 17 18 18 17 17 16 16 16 16 17 18 18 19 19 19 19 18 18 17 17 16 16 16 15 15 15 15 15 15 15
22 22 23 23 23 23 24 25 25 24 24 24 24 25 25 26 26 26 27 28 27 26 23 21 20 22 25 27 25 24 25 24 23 24 24 22 22 22 22 22 21 22 23 23 24 25 25 24 24 24 23 21 19 18 18 18 18 19 19 19 18 18 17 16 16 16 16 17 17 18 18 18 18 18 18 18 17 17 17 17 17 17 17 17 17
25 25 25 24 24 25 27 27 27 27 26 26 26 27 27 28 28 29 29 30 29 28 26 24 23 24 26 27 24 21 21 21 20 22 24 24 24 24 25 25 25 24 24 25 25 26 27 27 26 26 26 25 23 20 19 19 20 20 21 21 21 20 19 18 17 17 17 17 17 17 17 17 17 17 17 17 17 17 17 17 17 18 18 18 19
26 26 25 25 25 27 28 28 28 29 29 29 29 29 30 30 30 30 31 31 31 30 29 28 28 27 26 27 25 21 22 22 20 21 23 24 24 25 25 25 24 24 25 27 28 28 28 29 30 29 28 28 26 23 21 22 22 23 23 23 23 22 22 21 19 19 19 19 18 18 18 17 17 17 16 16 16 16 16 16 16 17 17 18 18
26 27 27 28 29 30 30 30 30 31 31 31 31 32 32 33 33 33 33 33 33 33 32 32 31 29 27 28 27 26 27 29 26 24 22 21 22 25 27 26 25 24 25 26 28 29 28 28 31 33 31 30 28 26 24 24 25 25 26 26 26 25 24 23 22 22 21 21 20 20 20 20 19 18 18 18 17 17 17 18 18 18 19 19 19
29 29 28 29 30 30 30 30 31 31 32 33 33 34 34 35 36 36 36 36 36 36 36 34 33 31 29 30 32 32 31 32 33 31 28 27 29 30 30 30 29 28 28 28 28 29 28 27 29 32 32 31 30 29 28 28 27 27 28 29 30 29 28 27 26 25 24 23 23 22 22 22 22 21 21 21 21 20 20 21 21 21 22 22 22
32 31 31 31 31 32 32 33 33 34 34 34 34 35 36 37 37 37 37 38 38 38 38 37 36 34 34 35 37 38 37 36 36 35 35 36 37 35 33 33 33 32 32 32 31 32 32 31 30 29 29 31 31 30 30 30 30 30 30 31 33 33 32 31 30 29 28 28 28 27 27 26 25 25 25 25 25 24 24 24 25 25 25 25 25
37 36 36 37 37 37 37 36 36 36 36 36 37 38 39 40 39 39 39 40 40 40 40 39 39 38 38 39 39 40 40 40 39 39 39 40 40 39 38 37 37 37 36 36 35 35 34 34 33 31 31 32 32 32 31 31 32 32 33 33 34 35 36 35 34 32 31 31 32 32 31 30 29 29 29 29 29 28 29 29 29 30 31 30 30
41 41 42 42 41 41 41 40 38 37 38 39 40 41 41 41 40 40 40 40 41 41 41 41 41 40 40 41 42 42 42 42 41 41 42 42 42 42 42 41 40 41 41 41 40 39 38 37 36 36 35 35 35 35 34 34 34 34 33 34 35 37 39 39 38 36 35 34 34 35 35 34 33 33 33 32 32 32 33 33 34 35 35 35 35
44 44 44 44 44 44 45 44 43 41 40 39 38 38 38 38 39 39 40 40 41 41 42 42 42 41 42 42 42 42 42 42 43 43 43 44 44 44 44 43 43 43 43 43 43 42 42 42 41 40 39 38 38 37 37 37 38 37 36 36 37 38 39 41 42 40 38 37 36 35 35 34 34 34 34 34 35 36 37 37 38 39 39 39 39
47 46 45 46 46 47 47 47 47 46 44 40 38 38 38 38 38 39 40 41 42 42 42 42 42 42 42 42 42 42 42 42 42 43 44 45 46 46 46 45 44 43 43 42 42 42 43 43 43 42 42 41 41 40 40 40 40 41 41 40 40 39 38 39 40 40 39 38 36 35 34 34 35 36 37 39 40 40 40 40 41 41 42 42 42
49 48 47 46 46 46 47 48 48 48 47 46 44 44 43 42 41 41 43 44 45 45 44 43 43 43 42 42 42 41 41 41 41 41 42 42 43 44 44 44 43 42 41 41 41 41 41 42 42 43 43 42 42 43 43 43 43 43 44 44 44 43 41 40 40 40 40 40 40 39 39 39 40 42 43 43 42 42 42 43 43 43 44 44 44
48 48 47 47 47 46 46 46 46 46 47 48 49 49 48 46 45 45 45 45 45 45 45 45 44 44 44 44 43 43 43 43 43 43 43 42 42 41 42 42 43 43 42 41 41 41 41 41 42 42 42 42 42 43 44 45 45 44 45 46 46 47 47 46 45 44 43 44 44 45 46 46 46 47 47 45 43 44 44 45 46 46 46 46 47
48 47 47 46 45 45 43 44 46 45 44 45 47 48 48 46 45 45 45 45 45 45 46 46 46 45 45 45 46 46 45 45 44 44 44 44 43 43 44 45 45 46 45 44 44 44 44 43 43 42 42 42 42 43 43 44 46 46 46 47 47 48 48 49 49 48 48 49 49 50 51 53 53 53 51 48 47 47 48 48 49 49 49 50 52
45 45 45 43 42 42 41 41 44 44 44 45 47 47 48 48 48 47 47 48 48 48 48 48 48 47 47 47 48 47 46 45 45 45 45 45 46 46 47 47 48 48 48 49 49 49 47 45 44 44 43 43 43 43 43 43 45 46 46 46 47 47 48 49 50 51 51 52 53 53 54 56 56 56 55 53 52 52 52 53 53 53 54 56 57
46 44 45 45 45 45 44 43 43 45 47 49 50 50 50 50 51 51 51 51 52 52 52 51 50 49 49 49 49 48 47 47 46 46 47 48 49 49 49 50 50 50 51 52 52 51 49 47 46 45 45 44 44 44 44 44 44 44 45 45 46 46 47 49 50 51 52 52 53 53 53 53 54 55 55 55 55 55 54 54 54 55 56 57 58
49 48 47 48 49 49 48 45 44 45 47 49 50 51 51 52 52 51 51 51 51 53 54 53 52 52 51 51 50 49 49 49 49 50 51 51 51 51 51 51 51 52 53 53 52 51 50 49 48 47 46 45 44 44 44 44 44 44 44 45 45 46 47 48 49 50 51 51 51 51 51 51 52 53 53 54 54 54 54 54 54 54 54 54 55
50 50 50 50 51 51 51 50 48 48 48 48 48 48 48 49 51 52 51 50 50 50 51 52 53 53 52 52 52 52 52 53 54 55 54 54 53 53 52 52 53 54 53 52 51 51 51 50 50 49 48 47 46 46 45 45 45 45 45 45 45 46 47 47 48 49 50 50 50 50 51 51 52 52 53 53 54 54 54 54 54 54 53 53 54
50 50 50 51 52 52 53 53 53 54 55 55 55 54 53 53 55 57 58 57 56 56 56 56 56 56 56 57 57 57 58 59 59 58 56 55 55 54 54 54 54 53 53 52 51 50 50 50 50 50 49 49 48 48 47 47 47 47 47 47 47 47 47 48 48 48 49 49 49 50 50 51 52 52 53 54 54 54 55 55 55 54 54 54 54
50 52 52 53 53 54 55 55 55 56 57 58 60 61 62 62 63 64 64 64 64 64 63 61 60 61 61 61 61 60 59 58 57 56 55 55 55 54 54 54 53 53 52 52 51 50 50 50 49 49 49 49 48 48 48 48 48 48 48 48 48 48 48 49 49 49 49 49 50 50 50 51 51 52 52 53 54 54 54 54 54 54 55 55 55
53 55 55 56 56 56 57 57 57 58 58 59 59 60 62 63 65 66 66 66 66 65 64 62 62 62 63 63 62 61 59 57 55 54 53 53 53 53 53 52 52 51 50 50 50 50 50 49 49 49 48 48 48 47 47 47 47 47 47 47 47 47 48 48 48 48 49 49 50 50 51 51 52 52 52 52 52 53 53 54 54 55 55 55 56
56 56 56 57 57 58 58 59 60 60 60 61 62 62 62 62 63 64 65 65 65 65 64 62 61 61 61 61 60 59 58 56 54 53 53 52 52 52 51 50 49 49 48 47 47 48 48 48 48 48 47 47 47 46 47 47 47 46 46 46 46 46 46 46 46 46 47 47 48 49 50 51 51 51 51 51 52 52 53 53 54 54 55 55 56
57 57 57 58 58 58 59 59 60 60 61 62 62 62 62 62 63 64 64 65 65 65 64 62 60 59 59 59 58 57 57 55 54 54 53 52 52 52 51 50 48 46 45 45 45 46 46 46 47 47 47 47 46 46 46 46 46 46 45 44 45 45 45 44 44 44 44 44 44 45 46 47 48 48 49 50 50 51 51 52 52 52 53 54 54
59 59 59 59 59 59 59 59 60 60 61 62 62 63 63 63 63 63 64 64 64 65 64 63 61 59 58 58 57 57 56 55 54 54 53 53 53 52 51 50 48 46 45 45 45 45 45 45 45 45 46 46 46 46 46 46 46 45 45 45 44 44 44 44 43 43 43 43 43 43 43 44 44 45 46 46 47 48 48 49 49 50 51 51 52
59 59 59 59 59 59 59 59 59 60 60 61 62 63 62 62 63 63 63 63 63 64 64 64 62 60 58 57 56 56 55 55 55 55 54 54 53 53 52 51 49 47 46 45 44 44 44 44 44 44 44 44 45 45 46 46 45 45 45 45 45 44 43 43 44 44 43 42 42 42 42 43 43 44 44 45 45 46 46 47 48 49 50 51 51
57 58 58 57 57 57 57 58 58 58 59 59 60 61 61 60 60 60 61 61 62 62 62 62 62 60 59 57 56 56 56 56 56 56 56 55 54 53 52 51 49 47 46 45 44 43 43 42 42 43 43 43 44 44 44 44 44 45 45 45 44 44 43 43 43 43 42 42 41 41 42 43 43 43 44 44 45 46 47 48 49 50 50 51 52
55 55 56 56 55 55 55 56 56 57 57 58 58 59 59 59 58 58 58 58 59 59 59 59 59 59 58 57 56 56 56 56 56 56 56 55 54 53 52 50 48 46 45 44 44 43 41 41 41 42 42 42 43 43 43 43 44 44 44 44 43 42 41 41 41 41 41 41 41 41 42 42 43 43 44 45 46 47 48 49 49 50 51 51 52
54 55 55 55 55 55 55 55 56 56 56 57 57 57 58 59 58 58 57 57 57 58 58 57 58 58 57 57 55 54 53 53 54 54 54 54 54 52 50 49 47 45 44 43 43 41 40 40 40 40 41 41 41 42 42 42 43 43 42 42 41 40 40 40 40 40 40 41 41 41 42 42 43 44 45 46 46 47 47 48 48 48 48 48 48
55 55 55 55 55 56 56 55 55 56 56 56 56 56 57 58 59 59 59 58 57 57 57 57 57 57 57 57 56 55 53 51 50 51 52 52 51 50 49 48 47 45 43 42 41 40 39 39 40 40 40 40 41 41 41 42 42 42 41 41 40 40 40 40 40 40 40 41 41 42 42 43 44 44 44 44 43 43 42 42 42 41 42 42 43
52 52 52 52 52 52 53 52 53 54 55 56 55 55 56 57 58 59 60 59 59 58 58 58 57 57 57 56 56 56 54 51 50 50 50 49 48 47 47 46 46 44 43 41 40 39 39 39 39 39 39 39 40 41 41 41 41 41 41 41 40 40 40 40 40 40 41 41 42 42 42 41 41 40 38 37 36 35 35 36 37 38 40 41 43
Wind_Direction
260 251 248 251 259 264 269 275 275 270 270 274 278 285 292 295 293 291 286 283 285 287 287 283 282 283 284 286 290 295 298 297 296 293 290 287 283 280 278 275 270 266 262 259 256 255 252 243 236 236 239 244 247 250 252 251 250 251 254 257 256 253 251 249 249 250 252 251 252 257 262 260 255 255 257 252 246 243 244 248 256 262 262 253 243
264 257 257 256 256 253 254 258 260 264 269 274 278 283 287 286 282 280 280 280 282 285 287 286 286 285 286 290 294 298 302 303 300 295 288 283 279 276 274 273 273 269 264 258 253 250 249 246 242 239 240 244 246 248 249 249 248 249 250 253 254 250 247 248 249 251 254 253 253 255 260 261 254 252 254 251 249 248 249 252 255 261 268 266 254
269 264 265 265 263 256 253 253 254 258 266 273 276 279 281 278 274 276 280 281 279 282 285 287 285 283 287 291 294 297 300 301 299 295 289 283 277 274 270 269 269 269 266 261 256 251 247 245 243 242 242 242 242 243 244 244 243 243 245 247 247 245 244 246 247 249 252 253 253 254 256 257 254 253 255 255 253 252 253 254 254 256 262 269 267
272 268 267 268 264 256 251 252 254 255 260 265 268 271 274 273 272 276 281 282 280 280 283 285 281 278 283 288 292 296 296 295 294 293 291 287 282 276 272 270 267 266 265 262 259 255 250 247 244 243 242 241 241 240 239 240 240 241 243 244 245 246 246 246 245 246 249 251 253 254 255 255 254 256 257 257 256 253 254 256 257 259 261 264 265
275 266 265 263 255 249 246 249 254 254 254 256 259 262 265 268 272 277 279 281 281 279 278 281 279 273 276 281 286 288 288 288 289 289 288 286 282 277 272 270 267 266 265 263 262 259 256 252 248 245 243 243 243 242 242 243 244 245 247 249 250 251 251 251 249 247 248 250 252 255 256 255 255 258 259 258 256 254 255 258 261 263 264 263 259
278 263 262 264 261 259 253 250 253 253 251 252 256 258 262 267 271 275 277 278 279 277 275 277 279 275 273 274 279 285 287 288 289 287 285 284 282 278 274 271 269 267 265 263 263 262 260 257 255 252 249 248 247 248 249 251 251 252 253 255 256 256 257 257 255 253 251 250 248 249 252 252 253 257 260 258 254 255 258 260 260 261 264 261 255
280 273 273 284 287 278 265 258 256 253 251 251 254 258 261 266 269 274 278 279 279 277 273 273 278 281 276 271 276 286 290 291 290 289 287 287 285 280 275 273 273 270 267 264 263 263 263 262 260 259 257 254 251 251 251 252 253 253 254 255 257 258 260 261 260 257 256 254 249 246 245 246 249 252 253 253 253 254 259 259 253 253 258 259 254
282 289 295 306 305 287 272 267 262 258 256 255 258 262 264 267 271 276 280 282 282 278 270 268 276 283 279 273 275 285 295 297 295 295 296 295 291 285 277 273 275 274 270 266 263 263 262 262 261 260 259 257 254 253 252 251 252 253 254 255 256 257 258 259 259 258 257 256 253 249 245 245 246 246 246 248 248 250 253 253 251 252 256 256 252
287 293 297 302 298 284 278 278 273 265 261 260 263 266 269 272 278 281 281 283 286 283 273 267 273 283 281 276 279 288 298 302 303 305 304 300 294 288 280 273 273 276 275 270 265 263 262 261 260 259 258 258 257 256 255 254 254 253 254 254 255 256 257 258 259 260 258 255 254 252 248 247 246 244 246 247 248 249 248 249 252 255 255 254 252
290 289 281 279 278 276 278 281 281 275 269 267 268 270 275 279 282 282 282 284 287 289 282 269 268 280 286 283 283 289 299 304 306 308 306 300 294 289 283 274 270 275 278 277 272 268 265 263 263 262 260 259 257 257 257 256 256 255 255 255 255 256 257 258 259 259 258 255 253 252 250 249 248 247 247 248 249 250 249 249 252 253 252 252 254
286 274 265 261 258 263 271 276 280 281 280 276 274 274 277 281 283 282 281 282 284 288 288 276 265 269 280 291 291 286 297 306 305 305 303 298 293 289 286 278 271 274 279 281 280 276 272 268 267 266 265 264 262 261 260 260 259 258 258 258 259 259 259 259 259 258 258 255 253 251 250 249 250 251 250 249 250 251 251 251 253 253 252 253 255
276 270 264 255 252 258 266 275 282 285 285 282 279 278 279 281 282 282 281 281 282 283 284 280 271 266 272 287 293 286 291 304 302 301 300 295 290 287 285 281 275 276 281 283 283 280 278 274 270 269 268 268 267 265 264 263 263 263 263 262 262 262 262 260 260 260 259 258 254 251 250 249 250 252 254 254 254 255 255 256 256 257 256 256 256
272 273 274 270 266 266 272 280 284 284 283 281 280 280 281 282 282 282 281 280 281 277 274 276 275 271 272 281 287 280 281 296 299 298 295 290 286 282 281 280 278 279 284 286 284 281 279 275 271 269 267 266 266 265 264 263 264 264 264 264 263 262 261 259 258 258 258 258 255 252 250 250 250 252 254 256 256 257 258 259 260 261 260 259 259
272 275 279 278 276 277 280 284 285 284 283 281 281 280 279 279 280 280 277 273 271 268 267 270 274 278 278 277 278 273 273 286 294 294 292 287 282 278 278 278 277 281 286 288 287 283 280 277 275 273 270 268 266 264 263 262 261 262 262 262 261 261 259 256 254 253 251 250 250 249 248 248 249 250 253 254 256 258 260 261 263 264 264 263 262
272 276 277 278 280 283 282 283 285 285 284 283 283 282 280 280 281 278 271 267 270 270 270 274 280 286 281 272 272 270 269 278 286 288 286 282 280 277 275 274 273 277 285 287 286 282 278 275 274 275 274 272 271 269 268 266 264 262 261 261 261 260 259 257 255 252 248 245 243 243 244 244 245 247 250 253 255 258 260 261 263 264 265 264 263
270 272 273 275 279 281 280 281 282 281 281 282 283 283 282 284 285 279 270 272 284 285 278 280 287 286 275 266 271 274 274 279 282 284 282 275 275 275 274 273 272 275 283 288 289 287 284 279 274 272 271 271 273 274 274 274 273 271 268 266 264 262 261 259 258 255 251 247 244 242 242 242 243 244 246 248 251 253 254 255 256 259 261 261 260
266 269 271 273 276 277 278 279 278 278 280 282 282 283 282 283 283 280 276 279 286 286 282 283 289 282 265 261 271 276 279 281 278 279 279 271 270 273 272 272 274 278 285 291 293 293 290 285 280 276 272 269 269 271 274 275 276 276 275 273 270 267 265 262 261 258 255 252 248 245 244 244 245 246 246 247 248 248 247 247 248 250 254 257 257
263 265 267 269 270 271 272 273 273 274 279 282 285 285 284 283 281 279 279 278 280 282 281 279 280 274 259 260 271 275 276 276 271 271 274 270 268 270 272 273 276 280 285 290 294 294 292 288 285 282 279 275 272 270 270 272 274 275 275 275 274 271 269 266 264 262 259 256 253 250 248 247 248 248 248 249 249 249 247 243 243 244 247 251 253
258 259 262 264 265 266 268 271 273 277 280 284 286 285 285 287 284 281 281 280 280 280 279 278 274 268 261 265 275 275 273 275 269 262 263 267 266 269 275 277 277 278 281 284 287 287 286 284 284 285 284 282 280 276 273 271 271 272 273 273 274 273 272 269 265 262 259 257 255 253 251 249 248 248 249 249 249 250 251 248 245 245 246 248 250
250 254 257 260 262 263 266 271 276 280 282 284 284 283 285 286 285 285 285 287 288 286 288 288 276 266 271 278 281 277 276 277 267 257 259 266 266 268 275 280 280 278 277 278 279 279 280 281 282 283 284 285 286 284 281 277 274 272 272 271 270 270 270 269 267 263 259 255 253 252 250 249 248 248 248 248 248 247 249 250 250 249 249 251 253
246 252 255 259 261 263 268 275 278 280 281 282 284 284 285 286 286 288 290 293 296 295 295 292 273 268 282 286 281 277 277 276 268 260 261 264 263 265 269 276 281 281 279 277 275 274 274 276 277 277 277 279 282 284 283 281 280 278 276 274 271 268 266 265 265 264 262 259 255 252 250 248 247 247 248 249 250 250 249 249 250 252 252 253 255
249 256 262 267 266 264 271 279 280 280 280 281 283 284 286 287 288 291 293 295 297 296 293 287 276 277 284 284 279 274 271 273 270 264 261 259 262 264 262 265 271 275 278 278 277 278 277 277 278 278 276 272 272 276 278 279 279 278 277 275 273 270 267 264 263 262 262 261 259 256 253 251 249 248 248 248 251 253 254 255 255 256 257 258 260
260 266 271 271 266 265 275 282 282 282 281 280 281 282 283 286 287 289 291 291 292 292 291 288 282 279 282 283 284 280 271 269 268 264 258 257 262 262 259 259 262 265 270 273 277 280 282 282 281 280 278 275 272 272 274 274 274 273 272 271 270 268 267 266 265 264 262 261 260 258 255 254 253 252 251 250 250 251 253 255 257 258 259 260 262
267 270 272 269 265 268 276 281 281 282 281 280 281 280 280 282 283 285 286 286 288 287 287 286 283 281 281 282 286 285 275 271 270 265 261 261 260 259 259 261 260 259 262 265 269 274 278 280 280 278 277 276 276 275 274 273 273 271 269 267 267 267 266 266 266 265 265 263 262 260 258 256 255 253 253 252 252 252 253 255 257 259 261 263 265
271 272 270 268 267 271 276 278 280 281 281 281 280 280 280 280 281 283 284 284 284 282 282 284 284 284 286 284 282 279 271 272 277 275 271 267 261 259 262 265 265 265 266 265 264 266 270 274 277 277 275 274 275 275 273 273 274 273 270 268 266 265 265 265 264 262 261 260 259 259 258 258 257 257 257 256 256 256 257 257 258 260 262 265 268
272 273 272 271 271 272 274 276 277 278 279 279 279 279 279 281 282 283 283 283 283 282 284 288 288 288 288 282 278 276 271 270 273 275 272 268 265 265 267 270 272 273 274 273 267 263 264 271 278 276 271 270 271 271 272 273 272 271 271 270 268 265 263 262 261 260 260 259 257 255 253 253 253 253 254 254 256 256 258 259 260 261 263 264 266
275 274 274 272 272 273 275 275 276 277 278 277 277 277 279 281 282 282 283 283 284 286 287 288 288 287 283 278 278 280 277 273 271 271 269 268 271 272 271 273 276 276 278 279 276 269 267 273 281 275 266 264 267 268 270 271 271 270 271 270 269 267 265 263 262 260 259 259 258 256 254 253 252 252 252 252 252 253 254 256 258 260 261 263 264
277 277 276 275 274 275 275 276 278 279 278 277 276 276 277 278 279 279 281 282 282 284 285 285 284 283 280 279 281 283 281 278 275 273 271 271 275 276 274 275 277 279 279 279 278 277 274 276 281 277 267 262 264 267 266 266 268 273 274 271 268 268 267 266 266 263 259 257 258 258 257 257 257 258 258 258 259 259 259 260 260 261 261 261 262
277 275 274 275 274 273 273 274 276 276 275 276 276 277 276 275 275 276 278 279 280 281 281 281 281 280 279 279 280 281 281 281 278 276 276 277 279 280 279 279 279 280 281 280 279 279 279 278 279 278 272 266 266 268 265 264 269 274 274 271 268 268 267 266 265 264 260 257 257 257 257 258 260 261 262 263 264 265 266 267 266 266 266 265 265
275 274 273 273 272 271 270 271 271 270 271 274 275 275 275 274 274 275 276 278 278 278 278 278 278 278 277 277 277 278 279 279 278 278 278 278 279 279 280 280 280 280 281 282 282 282 281 280 277 275 273 270 270 270 269 268 270 272 272 269 267 266 265 264 263 262 261 261 260 259 258 258 259 261 262 263 265 267 269 269 269 269 269 269 268
272 272 272 272 271 271 271 270 270 269 271 271 269 269 272 272 272 273 274 274 274 275 275 276 276 276 275 275 275 275 275 276 276 277 276 276 276 276 276 277 278 279 280 280 281 280 280 279 278 276 275 274 273 273 272 272 271 271 270 268 267 265 263 260 258 258 258 260 261 262 261 259 259 260 261 265 269 272 273 273 272 271 271 271 271
273 272 271 271 271 271 271 271 271 271 271 267 263 264 269 270 269 270 271 272 274 275 275 274 274 274 273 273 272 272 273 274 274 274 275 275 275 275 274 275 276 277 276 276 275 275 274 275 275 275 275 275 275 273 272 271 271 270 269 268 268 267 264 259 257 258 258 257 256 258 259 259 260 261 265 270 274 275 275 274 273 273 272 273 273
275 274 272 271 271 271 272 273 272 271 269 267 264 264 265 265 267 269 271 273 275 275 274 273 272 271 271 270 270 270 272 272 272 273 274 274 275 274 274 274 274 275 274 274 273 273 272 271 271 272 272 272 272 271 270 270 268 268 268 268 267 267 265 262 260 260 259 256 255 258 260 262 263 264 268 272 274 273 273 273 272 272 272 272 273
273 272 272 271 270 271 271 271 270 270 268 266 264 264 264 265 266 268 270 271 272 271 270 269 269 269 269 269 269 270 271 271 272 273 273 274 274 275 275 276 276 277 277 276 276 275 274 272 271 270 270 270 268 267 268 268 267 267 266 266 266 265 264 264 263 263 261 260 260 263 265 266 267 269 272 273 272 271 271 272 271 271 271 271 271
273 273 272 271 270 270 268 265 265 266 265 264 263 264 265 265 266 266 266 266 266 266 267 267 267 267 268 269 269 270 271 272 273 273 273 273 274 275 276 278 279 279 279 279 279 278 276 274 273 271 271 270 268 266 266 266 265 265 265 265 265 265 265 265 265 265 266 265 265 265 266 267 269 271 272 271 269 269 270 270 271 270 269 270 270
271 271 271 270 267 267 266 264 261 260 260 262 263 265 265 265 265 264 262 262 263 263 264 265 265 266 267 268 269 269 270 271 271 271 272 272 273 275 276 277 278 278 278 279 281 279 276 274 273 271 270 269 268 267 266 265 264 264 265 264 264 264 265 265 266 266 266 267 267 267 267 268 269 270 271 270 270 270 271 271 270 270 270 271 272
268 266 265 264 262 262 263 263 262 260 261 262 264 265 265 264 264 264 262 260 260 260 261 262 262 264 265 267 267 268 269 269 270 270 271 272 273 273 274 275 276 275 276 278 279 278 276 274 273 272 271 270 270 269 269 268 267 266 266 265 265 265 265 265 266 266 267 267 267 268 268 269 269 269 270 270 271 271 271 270 270 269 270 270 271
266 264 262 261 260 260 259 258 259 261 263 264 264 265 264 264 264 264 263 261 260 260 261 261 261 262 264 265 265 266 267 268 269 270 272 272 272 271 272 272 272 272 274 276 276 275 274 273 273 272 272 271 271 271 271 271 270 270 269 268 267 267 266 266 266 267 267 268 269 269 269 270 270 270 271 271 271 271 270 270 270 270 269 269 268
264 263 262 261 261 260 258 256 254 254 256 258 260 261 262 262 263 262 260 259 260 260 261 261 261 261 261 262 262 263 265 267 269 271 272 271 271 270 271 271 270 271 272 272 272 271 271 270 270 270 270 270 270 270 270 270 270 270 270 270 269 269 269 268 268 268 269 269 270 270 270 270 270 271 271 271 271 271 271 271 271 271 271 269 268
262 261 261 261 260 260 260 258 255 253 252 253 254 255 256 257 259 259 259 259 259 260 261 261 261 261 262 263 264 265 267 268 270 271 271 270 270 270 270 270 269 269 270 270 270 269 268 268 268 268 268 269 269 269 269 269 269 269 270 270 271 271 271 270 270 270 270 270 270 270 270 269 269 269 269 270 271 271 271 271 272 272 271 270 269
262 261 260 260 260 259 259 259 258 257 256 255 255 255 256 257 257 259 260 260 261 262 262 263 263 263 264 265 266 267 268 268 269 269 270 270 270 269 269 269 268 268 269 269 268 268 267 267 267 267 268 268 269 269 270 270 270 271 271 271 271 272 272 272 271 271 271 270 270 269 269 269 269 269 269 269 270 270 270 270 270 270 270 270 270
262 262 261 260 260 259 258 258 258 257 257 257 257 257 257 258 259 259 260 261 262 262 262 261 262 263 264 266 266 267 267 268 268 269 269 269 268 268 268 268 267 267 267 266 266 266 267 267 267 267 268 268 269 270 270 271 272 272 272 272 272 272 272 272 272 272 271 271 271 270 270 270 270 270 270 270 270 270 270 270 269 269 270 270 270
264 264 264 263 262 260 260 259 258 258 258 258 258 258 258 258 259 260 261 261 262 263 263 263 263 264 265 265 266 267 267 267 268 268 268 268 267 267 267 267 266 266 265 265 265 265 265 266 266 267 267 267 268 269 269 270 271 271 272 273 273 273 273 273 273 273 272 272 272 272 272 272 272 272 273 272 272 271 271 271 271 271 271 271 271
264 264 264 264 263 262 262 261 261 261 260 259 259 258 258 258 258 259 260 261 262 263 264 264 264 265 265 265 266 266 266 266 267 267 266 266 265 265 265 265 265 264 264 264 263 263 264 264 265 266 267 268 268 269 269 270 270 271 272 273 273 274 274 274 273 273 272 272 272 273 274 274 275 276 276 275 275 274 274 274 274 273 273 273 273
264 264 264 264 264 264 263 263 263 262 262 261 260 260 259 259 259 259 259 260 260 261 262 262 262 262 263 264 264 264 264 265 265 264 264 264 264 264 264 264 264 264 264 263 262 262 262 262 263 264 265 267 268 269 270 271 272 272 272 272 272 273 273 273 273 272 273 273 274 275 276 276 277 277 277 277 277 277 276 276 275 275 275 275 274
265 265 264 264 264 264 264 264 264 263 263 262 262 261 261 260 260 260 260 260 260 261 261 261 260 260 260 261 262 263 263 263 262 262 262 262 263 263 263 264 265 265 265 264 263 262 262 262 262 263 264 265 267 268 269 270 271 271 272 271 271 271 271 271 272 273 274 274 275 275 275 276 277 278 278 279 279 278 278 278 277 277 276 276 275
267 266 265 264 264 263 263 262 262 262 262 263 262 262 262 261 261 260 261 261 261 261 261 261 261 260 259 258 258 258 259 260 261 262 262 263 263 263 264 264 265 264 264 263 263 262 262 262 263 264 264 266 267 267 268 269 270 270 270 270 271 270 270 270 271 272 273 273 274 274 274 275 276 277 278 279 279 280 280 279 279 279 278 277 276
267 266 266 265 264 263 262 261 261 260 260 261 262 262 263 263 262 261 260 260 260 260 260 261 261 261 260 259 257 256 256 257 258 260 261 262 263 263 264 265 265 264 263 263 262 262 262 262 263 264 265 266 267 267 268 269 269 269 269 270 270 270 270 270 270 271 272 273 273 274 274 275 277 278 279 280 281 281 282 282 281 281 280 279 279
267 267 266 266 265 264 263 263 262 262 261 261 261 262 262 263 262 262 260 259 259 259 259 259 259 259 260 259 258 256 254 254 255 256 257 259 260 262 263 264 264 263 263 263 263 262 262 261 262 263 264 265 266 267 268 268 268 268 269 270 270 271 271 271 272 272 273 273 274 275 276 277 279 280 281 282 283 283 283 283 283 282 282 281 281
269 269 268 268 268 267 266 265 265 264 263 262 261 261 261 261 261 261 261 260 259 258 258 257 257 258 258 258 258 257 256 253 253 253 254 255 257 259 260 261 261 262 261 261 261 261 261 261 261 261 262 264 265 265 266 267 267 268 269 270 270 271 271 272 273 273 274 274 275 276 277 279 281 282 283 283 284 283 283 283 283 283 282 282 282
271 271 270 270 270 269 269 267 266 265 264 263 261 260 260 259 259 259 259 258 258 257 257 257 256 256 256 256 257 257 256 255 253 252 252 253 254 255 256 257 258 259 260 260 260 260 260 261 261 262 262 262 263 264 264 265 266 267 268 269 270 271 272 273 273 274 275 276 277 278 279 281 283 284 284 284 284 284 284 284 284 284 284 284 283
Height
5772 5772 5774 5775 5775 5776 5776 5776 5776 5777 5777 5777 5777 5777 5777 5777 5777 5777 5778 5779 5779 5779 5779 5779 5778 5777 5776 5776 5775 5775 5775 5775 5775 5775 5774 5775 5775 5775 5776 5776 5777 5778 5778 5779 5779 5780 5780 5781 5782 5783 5783 5784 5784 5784 5784 5785 5785 5785 5785 5785 5785 5785 5785 5786 5786 5787 5787 5787 5787 5787 5787 5787 5787 5787 5787 5788 5788 5789 5789 5790 5790 5790 5790 5790 5791
5771 5770 5771 5773 5774 5775 5775 5775 5775 5776 5776 5776 5776 5776 5776 5776 5776 5776 5777 5777 5778 5778 5777 5776 5775 5775 5774 5773 5773 5772 5772 5772 5773 5773 5773 5773 5773 5774 5774 5774 5774 5775 5776 5776 5777 5777 5778 5778 5779 5780 5781 5781 5782 5782 5782 5783 5783 5783 5783 5783 5783 5783 5783 5784 5784 5784 5784 5784 5784 5784 5784 5784 5785 5785 5785 5785 5786 5786 5787 5787 5788 5788 5788 5788 5788
5770 5769 5769 5770 5772 5773 5774 5774 5774 5774 5775 5774 5774 5774 5774 5774 5775 5775 5776 5776 5776 5776 5776 5775 5774 5773 5771 5771 5770 5770 5770 5770 5770 5771 5772 5772 5772 5772 5772 5773 5773 5773 5773 5773 5774 5775 5775 5776 5777 5777 5778 5779 5779 5780 5780 5780 5780 5780 5780 5780 5780 5781 5781 5781 5782 5782 5782 5782 5782 5782 5782 5782 5782 5783 5783 5784 5784 5784 5784 5785 5785 5786 5786 5786 5786
5768 5769 5769 5769 5770 5771 5771 5771 5771 5772 5773 5773 5773 5773 5773 5773 5773 5773 5774 5774 5774 5774 5774 5774 5773 5771 5770 5769 5768 5768 5768 5768 5769 5769 5769 5769 5770 5770 5770 5771 5771 5771 5771 5772 5772 5773 5773 5774 5775 5775 5776 5776 5777 5777 5777 5777 5777 5777 5777 5777 5778 5778 5778 5779 5779 5779 5779 5780 5780 5780 5780 5780 5780 5781 5781 5782 5782 5782 5782 5782 5783 5783 5783 5784 5784
5766 5767 5767 5768 5768 5769 5769 5769 5769 5770 5771 5771 5771 5771 5771 5771 5771 5772 5772 5772 5772 5772 5772 5772 5772 5771 5769 5768 5767 5767 5767 5767 5767 5767 5767 5767 5767 5768 5768 5768 5769 5769 5769 5770 5770 5770 5771 5771 5772 5773 5773 5773 5773 5773 5773 5773 5774 5774 5774 5775 5775 5775 5775 5775 5776 5776 5777 5777 5777 5777 5777 5777 5778 5778 5779 5779 5779 5779 5780 5780 5780 5780 5781 5781 5782
5762 5764 5765 5766 5767 5767 5767 5767 5767 5768 5768 5768 5769 5769 5769 5769 5770 5770 5770 5770 5769 5769 5770 5770 5770 5771 5769 5768 5767 5766 5766 5765 5765 5764 5764 5764 5765 5765 5765 5766 5766 5767 5767 5767 5767 5768 5768 5769 5769 5769 5770 5771 5771 5771 5770 5771 5771 5772 5772 5772 5772 5773 5773 5772 5773 5773 5774 5774 5775 5775 5775 5775 5775 5775 5775 5776 5776 5777 5777 5777 5777 5778 5779 5779 5780
5760 5761 5763 5764 5765 5765 5766 5766 5766 5766 5766 5766 5767 5767 5767 5767 5767 5768 5768 5767 5767 5767 5767 5767 5768 5770 5769 5768 5767 5766 5765 5764 5763 5762 5762 5762 5762 5762 5763 5763 5764 5764 5764 5764 5764 5765 5765 5766 5766 5766 5767 5768 5768 5768 5768 5768 5769 5769 5770 5770 5770 5770 5770 5770 5770 5770 5771 5772 5772 5772 5773 5773 5772 5772 5773 5773 5774 5774 5774 5775 5775 5776 5777 5777 5777
5759 5760 5761 5762 5762 5763 5763 5764 5764 5765 5765 5765 5765 5764 5765 5764 5765 5765 5765 5765 5764 5764 5764 5765 5766 5767 5768 5767 5765 5764 5762 5761 5761 5760 5760 5760 5760 5760 5760 5761 5761 5762 5762 5762 5762 5762 5763 5763 5764 5764 5765 5765 5765 5766 5766 5766 5767 5767 5767 5768 5768 5768 5768 5768 5768 5768 5768 5769 5769 5769 5770 5770 5770 5770 5770 5770 5771 5772 5772 5773 5773 5774 5774 5775 5775
5758 5758 5759 5759 5759 5759 5760 5761 5761 5762 5762 5762 5762 5762 5762 5762 5762 5762 5762 5762 5761 5761 5762 5762 5763 5764 5765 5765 5763 5761 5760 5759 5758 5758 5758 5758 5758 5758 5758 5758 5759 5759 5760 5760 5760 5760 5761 5761 5761 5762 5762 5762 5763 5763 5763 5764 5764 5765 5765 5765 5765 5765 5765 5765 5765 5765 5766 5766 5766 5767 5767 5768 5768 5768 5768 5768 5769 5769 5770 5770 5771 5772 5772 5772 5772
5756 5757 5757 5757 5757 5756 5757 5757 5758 5759 5760 5760 5760 5760 5759 5759 5759 5759 5759 5758 5758 5758 5759 5759 5760 5761 5762 5762 5760 5759 5758 5757 5756 5756 5756 5756 5756 5756 5756 5756 5756 5757 5757 5757 5758 5758 5758 5759 5759 5759 5760 5760 5760 5760 5761 5761 5761 5762 5762 5762 5762 5762 5762 5762 5762 5762 5763 5763 5763 5764 5764 5765 5765 5765 5765 5766 5766 5766 5767 5768 5768 5769 5769 5769 5769
5755 5755 5755 5755 5755 5754 5754 5754 5755 5756 5756 5757 5758 5758 5757 5757 5756 5756 5756 5756 5756 5756 5755 5756 5756 5757 5757 5758 5757 5757 5755 5755 5754 5754 5754 5754 5754 5754 5754 5754 5754 5755 5755 5755 5755 5756 5756 5756 5756 5757 5757 5757 5757 5757 5758 5758 5758 5758 5759 5759 5759 5759 5760 5760 5759 5759 5760 5760 5760 5761 5761 5762 5762 5762 5763 5763 5763 5763 5764 5765 5766 5766 5766 5766 5766
5752 5752 5752 5752 5752 5752 5752 5752 5752 5753 5753 5754 5755 5755 5755 5755 5754 5753 5753 5753 5752 5752 5752 5752 5752 5752 5752 5753 5754 5754 5753 5753 5752 5752 5752 5752 5752 5752 5753 5753 5752 5753 5753 5753 5753 5754 5754 5754 5754 5754 5754 5754 5754 5754 5755 5755 5755 5755 5755 5756 5756 5756 5757 5757 5757 5756 5756 5757 5757 5757 5758 5758 5759 5759 5760 5760 5761 5761 5762 5762 5763 5763 5763 5763 5763
5747 5748 5748 5749 5750 5750 5750 5750 5750 5750 5750 5751 5752 5752 5753 5752 5752 5750 5749 5749 5748 5748 5748 5749 5749 5749 5749 5750 5751 5751 5751 5750 5750 5750 5750 5750 5750 5751 5751 5751 5751 5751 5751 5751 5751 5751 5752 5752 5752 5752 5752 5752 5752 5752 5752 5752 5752 5752 5752 5753 5753 5753 5754 5754 5754 5754 5754 5754 5754 5755 5755 5755 5756 5756 5757 5757 5758 5758 5759 5759 5759 5759 5760 5760 5760
5744 5744 5745 5746 5747 5747 5748 5747 5747 5747 5747 5747 5748 5749 5749 5749 5749 5746 5743 5742 5743 5744 5744 5745 5746 5746 5746 5748 5749 5749 5748 5748 5748 5748 5748 5748 5748 5749 5749 5749 5749 5749 5749 5749 5749 5749 5749 5750 5750 5750 5750 5750 5751 5751 5751 5750 5750 5750 5750 5750 5750 5751 5751 5751 5751 5752 5752 5752 5752 5752 5752 5753 5753 5753 5754 5754 5754 5755 5755 5756 5756 5756 5756 5757 5757
5741 5741 5742 5743 5744 5745 5745 5744 5744 5744 5744 5744 5744 5745 5745 5746 5746 5743 5740 5739 5740 5742 5742 5742 5744 5745 5744 5746 5747 5746 5746 5746 5746 5745 5745 5745 5746 5746 5747 5747 5748 5747 5747 5747 5747 5747 5748 5748 5748 5748 5748 5749 5749 5749 5749 5749 5749 5749 5749 5749 5749 5749 5749 5749 5749 5750 5750 5750 5750 5750 5750 5750 5750 5751 5751 5751 5751 5751 5752 5752 5752 5753 5753 5754 5754
5737 5738 5739 5740 5741 5742 5742 5742 5741 5741 5742 5742 5742 5742 5741 5742 5743 5743 5742 5742 5742 5742 5740 5741 5742 5742 5742 5743 5744 5744 5743 5744 5744 5743 5743 5743 5744 5744 5745 5746 5746 5746 5746 5746 5746 5746 5746 5746 5746 5746 5747 5747 5747 5748 5748 5748 5748 5748 5748 5748 5748 5748 5747 5747 5747 5747 5748 5748 5748 5748 5748 5748 5748 5748 5748 5748 5748 5748 5749 5749 5749 5750 5750 5751 5752
5734 5735 5736 5737 5738 5739 5739 5739 5739 5739 5739 5740 5740 5740 5740 5740 5741 5740 5741 5741 5741 5740 5739 5739 5739 5740 5740 5741 5741 5741 5741 5741 5742 5741 5741 5741 5742 5742 5743 5743 5744 5744 5744 5744 5744 5745 5745 5745 5745 5745 5745 5745 5745 5746 5746 5746 5746 5746 5746 5746 5746 5746 5746 5746 5746 5746 5745 5745 5745 5745 5746 5746 5746 5746 5746 5746 5746 5746 5746 5746 5747 5747 5747 5747 5748
5732 5733 5733 5734 5735 5736 5736 5737 5737 5737 5737 5737 5737 5737 5737 5738 5739 5738 5738 5738 5738 5737 5736 5736 5736 5737 5737 5738 5739 5739 5739 5739 5740 5739 5739 5740 5740 5740 5740 5741 5742 5742 5742 5742 5743 5743 5743 5743 5743 5744 5744 5744 5744 5744 5744 5744 5744 5744 5744 5744 5744 5744 5744 5744 5744 5744 5744 5744 5743 5743 5743 5744 5744 5744 5744 5744 5744 5744 5744 5745 5745 5745 5745 5745 5745
5731 5731 5731 5732 5732 5733 5733 5733 5734 5734 5734 5735 5735 5734 5734 5735 5736 5736 5736 5736 5735 5735 5734 5734 5733 5733 5735 5736 5736 5737 5736 5737 5737 5737 5738 5738 5737 5737 5737 5738 5739 5740 5740 5740 5741 5741 5741 5741 5741 5742 5742 5742 5743 5742 5742 5742 5742 5742 5742 5742 5742 5743 5743 5743 5742 5742 5742 5742 5742 5742 5742 5742 5742 5742 5742 5742 5743 5743 5743 5743 5743 5743 5743 5743 5743
5729 5729 5729 5729 5730 5730 5730 5731 5731 5731 5731 5732 5732 5731 5731 5732 5733 5733 5733 5733 5733 5733 5733 5733 5732 5731 5733 5734 5734 5734 5734 5734 5735 5735 5736 5736 5736 5736 5735 5735 5736 5737 5738 5738 5738 5738 5739 5739 5739 5740 5740 5741 5741 5741 5741 5741 5741 5740 5740 5740 5741 5741 5741 5741 5741 5741 5740 5740 5740 5740 5740 5740 5740 5740 5741 5741 5741 5741 5741 5742 5742 5742 5742 5742 5742
5727 5727 5727 5727 5727 5727 5727 5727 5727 5728 5729 5729 5728 5728 5727 5728 5729 5729 5729 5729 5729 5729 5729 5730 5730 5729 5730 5731 5731 5731 5731 5732 5733 5733 5733 5734 5735 5734 5734 5734 5733 5734 5735 5735 5735 5736 5736 5737 5737 5737 5738 5738 5739 5739 5739 5740 5739 5739 5739 5739 5739 5738 5738 5739 5739 5739 5739 5738 5738 5738 5738 5738 5738 5738 5738 5739 5739 5739 5739 5740 5740 5740 5740 5740 5741
5725 5725 5725 5725 5725 5724 5724 5723 5724 5724 5725 5726 5725 5724 5724 5724 5724 5724 5724 5724 5724 5725 5725 5727 5727 5727 5727 5727 5728 5728 5729 5729 5730 5730 5731 5731 5732 5732 5732 5732 5732 5732 5732 5732 5733 5733 5734 5734 5734 5735 5735 5735 5736 5736 5737 5738 5738 5737 5737 5737 5736 5736 5736 5736 5736 5736 5737 5737 5737 5737 5736 5736 5736 5736 5736 5737 5737 5737 5738 5738 5738 5738 5738 5738 5738
5722 5722 5722 5722 5722 5721 5721 5720 5720 5720 5721 5722 5722 5721 5721 5720 5720 5720 5720 5720 5720 5721 5722 5724 5725 5725 5725 5724 5724 5725 5725 5726 5727 5727 5727 5728 5728 5729 5729 5730 5730 5730 5730 5730 5730 5730 5731 5732 5732 5732 5732 5733 5733 5734 5734 5735 5735 5735 5735 5735 5734 5734 5734 5734 5734 5734 5734 5735 5735 5735 5735 5735 5734 5734 5734 5735 5735 5735 5736 5736 5736 5736 5736 5736 5736
5718 5718 5718 5718 5718 5719 5718 5717 5717 5717 5717 5718 5718 5718 5718 5717 5717 5717 5717 5717 5717 5718 5719 5721 5723 5723 5723 5721 5720 5721 5722 5723 5724 5724 5724 5725 5725 5726 5726 5727 5727 5728 5728 5728 5728 5728 5728 5728 5729 5729 5730 5730 5731 5731 5732 5732 5732 5733 5733 5733 5733 5732 5732 5732 5732 5732 5732 5732 5732 5732 5732 5733 5732 5732 5732 5733 5733 5733 5733 5733 5734 5734 5734 5734 5734
5714 5715 5715 5715 5715 5715 5715 5714 5714 5713 5714 5714 5714 5715 5715 5715 5715 5715 5715 5714 5714 5714 5716 5718 5719 5719 5719 5717 5717 5718 5719 5720 5721 5722 5722 5721 5722 5722 5723 5724 5724 5725 5725 5725 5725 5725 5725 5725 5725 5726 5727 5727 5728 5728 5728 5728 5729 5730 5730 5730 5731 5731 5730 5730 5730 5730 5729 5729 5730 5730 5730 5730 5730 5730 5730 5730 5731 5731 5731 5731 5731 5731 5731 5732 5732
5711 5711 5711 5712 5712 5712 5712 5711 5711 5710 5710 5710 5711 5711 5711 5711 5711 5712 5712 5711 5711 5711 5712 5713 5713 5714 5716 5714 5713 5714 5716 5717 5719 5720 5720 5720 5719 5718 5718 5720 5721 5721 5722 5722 5722 5722 5722 5722 5722 5722 5723 5724 5724 5725 5725 5725 5725 5726 5726 5727 5727 5727 5728 5728 5728 5727 5727 5727 5727 5727 5727 5727 5727 5728 5728 5728 5728 5728 5728 5728 5728 5729 5729 5729 5729
5707 5708 5708 5708 5708 5708 5708 5708 5707 5707 5706 5706 5706 5706 5706 5706 5706 5706 5706 5706 5706 5706 5706 5708 5709 5711 5712 5711 5710 5710 5713 5714 5715 5716 5717 5718 5716 5715 5715 5716 5717 5717 5718 5718 5719 5719 5719 5720 5720 5719 5719 5720 5721 5721 5721 5721 5721 5722 5722 5723 5723 5723 5724 5724 5725 5725 5724 5724 5724 5725 5725 5725 5725 5725 5725 5725 5725 5725 5725 5725 5725 5726 5726 5726 5726
5703 5704 5704 5704 5704 5704 5704 5704 5703 5703 5702 5702 5702 5702 5702 5702 5702 5701 5701 5701 5701 5701 5702 5704 5705 5707 5708 5707 5706 5706 5708 5710 5710 5711 5712 5712 5711 5711 5711 5712 5713 5713 5714 5714 5715 5715 5715 5716 5716 5716 5717 5717 5717 5718 5718 5717 5718 5718 5719 5719 5719 5719 5720 5720 5721 5721 5721 5721 5721 5721 5721 5721 5721 5722 5722 5721 5722 5722 5722 5722 5722 5722 5722 5722 5723
5698 5699 5699 5700 5700 5700 5700 5700 5699 5699 5698 5698 5697 5698 5698 5698 5698 5698 5698 5697 5698 5698 5699 5700 5701 5702 5703 5703 5703 5702 5703 5704 5705 5705 5705 5705 5705 5706 5707 5707 5708 5709 5709 5710 5710 5710 5710 5711 5712 5713 5713 5714 5714 5714 5714 5714 5714 5714 5715 5715 5715 5715 5715 5716 5716 5717 5717 5717 5716 5716 5717 5717 5718 5718 5717 5717 5718 5718 5718 5718 5718 5718 5718 5718 5718
5692 5692 5693 5694 5695 5695 5695 5695 5695 5695 5694 5694 5693 5693 5693 5693 5693 5694 5694 5694 5694 5694 5694 5695 5696 5697 5698 5698 5698 5698 5699 5699 5699 5700 5700 5700 5700 5701 5701 5702 5703 5704 5704 5705 5705 5705 5705 5706 5707 5708 5709 5709 5709 5709 5709 5710 5710 5711 5711 5711 5712 5712 5711 5711 5711 5712 5712 5712 5711 5711 5712 5713 5713 5713 5713 5713 5713 5713 5714 5714 5714 5713 5713 5713 5713
5686 5686 5686 5687 5688 5688 5689 5689 5690 5690 5691 5690 5689 5688 5688 5689 5689 5689 5689 5689 5689 5689 5689 5690 5691 5692 5692 5693 5693 5693 5694 5694 5694 5695 5695 5695 5696 5696 5697 5697 5698 5699 5699 5699 5700 5700 5700 5700 5701 5702 5703 5704 5703 5703 5704 5705 5705 5706 5706 5707 5707 5707 5707 5707 5706 5707 5707 5706 5706 5706 5706 5707 5707 5707 5707 5707 5708 5708 5708 5708 5708 5708 5707 5707 5707
5679 5679 5679 5679 5680 5681 5681 5681 5682 5684 5685 5685 5685 5684 5684 5684 5684 5684 5683 5684 5684 5685 5685 5686 5686 5686 5686 5687 5687 5688 5688 5689 5689 5690 5690 5690 5690 5690 5691 5692 5693 5693 5694 5694 5695 5695 5695 5695 5695 5696 5697 5697 5697 5698 5698 5699 5699 5700 5701 5701 5702 5702 5702 5702 5702 5702 5702 5701 5701 5701 5701 5701 5702 5702 5701 5702 5702 5702 5702 5702 5702 5701 5701 5701 5701
5671 5672 5672 5672 5672 5673 5674 5674 5675 5675 5676 5677 5678 5679 5678 5678 5679 5679 5678 5679 5680 5680 5680 5680 5680 5681 5681 5681 5682 5682 5683 5683 5684 5684 5684 5684 5684 5685 5685 5686 5687 5687 5688 5689 5689 5689 5689 5689 5689 5690 5690 5691 5691 5691 5692 5692 5693 5694 5694 5695 5696 5696 5697 5697 5697 5697 5696 5696 5696 5696 5696 5696 5696 5696 5696 5696 5697 5696 5696 5696 5695 5695 5695 5694 5694
5664 5665 5665 5665 5665 5667 5668 5668 5667 5668 5669 5669 5670 5671 5672 5673 5673 5673 5673 5674 5674 5674 5674 5674 5674 5675 5675 5675 5676 5676 5677 5677 5678 5678 5678 5679 5679 5679 5679 5680 5680 5681 5681 5682 5682 5683 5683 5683 5683 5683 5684 5684 5685 5685 5685 5685 5686 5687 5688 5688 5689 5689 5690 5690 5690 5690 5690 5691 5691 5691 5690 5690 5689 5690 5690 5691 5691 5690 5690 5689 5689 5688 5689 5688 5688
5658 5658 5658 5658 5659 5660 5661 5661 5661 5660 5661 5662 5662 5663 5665 5666 5668 5668 5668 5668 5668 5668 5668 5668 5668 5669 5669 5669 5670 5670 5671 5671 5672 5672 5672 5673 5673 5673 5673 5673 5674 5674 5675 5675 5676 5676 5676 5676 5676 5677 5677 5677 5678 5678 5679 5679 5679 5679 5681 5682 5682 5682 5682 5683 5683 5683 5683 5684 5684 5684 5683 5683 5683 5683 5684 5685 5684 5683 5683 5683 5682 5682 5682 5681 5680
5652 5651 5651 5652 5653 5653 5653 5654 5654 5654 5654 5655 5656 5656 5658 5659 5660 5661 5661 5661 5661 5661 5661 5662 5662 5663 5663 5663 5664 5664 5665 5665 5665 5666 5666 5667 5667 5667 5667 5668 5668 5668 5668 5668 5669 5669 5669 5669 5670 5670 5670 5671 5671 5672 5672 5672 5672 5673 5673 5674 5675 5675 5675 5675 5675 5676 5676 5676 5676 5677 5676 5676 5676 5676 5676 5676 5676 5676 5676 5676 5675 5675 5674 5673 5672
5646 5646 5645 5645 5645 5646 5646 5647 5648 5648 5648 5648 5649 5649 5650 5650 5650 5652 5653 5654 5654 5654 5654 5655 5655 5656 5656 5657 5657 5658 5659 5659 5659 5660 5660 5661 5661 5661 5662 5662 5662 5662 5662 5662 5662 5662 5662 5663 5663 5663 5663 5664 5664 5665 5665 5665 5665 5666 5666 5666 5667 5667 5668 5668 5668 5668 5669 5669 5669 5669 5669 5668 5668 5667 5667 5667 5668 5668 5668 5668 5667 5667 5666 5665 5664
5636 5637 5638 5638 5637 5637 5639 5641 5642 5643 5642 5641 5641 5642 5642 5642 5643 5643 5644 5645 5646 5646 5646 5648 5649 5649 5650 5650 5651 5651 5652 5652 5652 5653 5654 5654 5655 5655 5656 5656 5656 5656 5656 5656 5656 5656 5656 5656 5656 5656 5656 5657 5657 5658 5658 5658 5658 5658 5658 5659 5659 5660 5660 5661 5661 5661 5661 5661 5661 5661 5661 5660 5660 5659 5659 5659 5659 5659 5659 5659 5659 5658 5658 5658 5657
5628 5628 5629 5629 5629 5629 5630 5632 5635 5635 5635 5635 5634 5634 5634 5635 5635 5635 5636 5637 5638 5639 5639 5640 5641 5642 5643 5643 5644 5645 5645 5645 5645 5646 5646 5647 5648 5648 5649 5649 5650 5650 5650 5650 5650 5650 5649 5649 5649 5649 5649 5650 5650 5651 5651 5651 5651 5651 5651 5652 5652 5652 5653 5653 5654 5654 5654 5654 5653 5653 5653 5652 5652 5651 5651 5651 5650 5650 5650 5650 5650 5650 5649 5649 5648
5619 5620 5620 5620 5621 5621 5621 5623 5625 5626 5626 5626 5626 5626 5626 5626 5626 5626 5627 5628 5630 5631 5632 5632 5633 5634 5635 5636 5636 5637 5638 5638 5638 5639 5639 5640 5641 5641 5642 5642 5642 5642 5643 5643 5643 5643 5643 5643 5643 5643 5643 5643 5643 5644 5644 5644 5645 5645 5645 5645 5645 5645 5645 5646 5646 5646 5646 5646 5646 5645 5645 5644 5644 5644 5643 5643 5642 5642 5641 5641 5641 5640 5640 5639 5638
5610 5610 5611 5612 5612 5613 5613 5614 5615 5616 5617 5617 5617 5617 5617 5617 5617 5617 5618 5619 5621 5622 5624 5625 5626 5626 5627 5627 5628 5629 5630 5631 5631 5632 5632 5633 5633 5634 5634 5634 5635 5635 5636 5636 5636 5636 5636 5636 5636 5636 5636 5636 5637 5637 5637 5637 5638 5638 5638 5638 5639 5638 5638 5638 5638 5639 5639 5639 5638 5638 5637 5637 5636 5636 5635 5635 5635 5634 5633 5633 5632 5631 5631 5630 5629
5600 5601 5601 5603 5603 5604 5604 5605 5605 5606 5607 5608 5608 5609 5609 5609 5609 5609 5610 5610 5611 5613 5615 5616 5617 5617 5618 5618 5619 5620 5621 5623 5623 5624 5625 5625 5626 5626 5626 5627 5628 5629 5630 5630 5629 5629 5629 5629 5629 5629 5629 5630 5630 5630 5630 5630 5631 5631 5631 5631 5631 5631 5631 5631 5631 5631 5631 5630 5630 5629 5629 5628 5628 5628 5628 5628 5627 5626 5625 5625 5624 5623 5622 5621 5621
5593 5593 5593 5594 5594 5595 5595 5596 5596 5597 5597 5597 5598 5599 5600 5600 5600 5601 5601 5601 5602 5603 5605 5607 5608 5609 5609 5609 5610 5611 5612 5614 5615 5616 5617 5617 5617 5618 5618 5619 5621 5622 5623 5623 5623 5622 5622 5622 5622 5622 5623 5623 5623 5624 5624 5624 5624 5624 5624 5625 5624 5624 5624 5624 5624 5623 5623 5623 5622 5622 5621 5620 5620 5620 5620 5620 5619 5618 5617 5616 5615 5615 5614 5613 5612
5585 5585 5584 5584 5585 5586 5587 5587 5587 5587 5587 5588 5588 5589 5591 5591 5592 5592 5592 5593 5593 5594 5595 5598 5599 5599 5600 5600 5601 5602 5603 5605 5606 5607 5608 5609 5609 5609 5611 5612 5614 5615 5616 5616 5616 5616 5616 5616 5616 5616 5616 5616 5617 5617 5617 5617 5618 5618 5618 5618 5618 5617 5617 5616 5616 5616 5616 5616 5615 5615 5614 5614 5613 5613 5612 5611 5610 5610 5609 5608 5607 5606 5605 5604 5603
5577 5576 5576 5575 5576 5577 5577 5578 5579 5578 5578 5578 5578 5579 5581 5582 5583 5583 5584 5584 5585 5585 5586 5588 5590 5590 5591 5591 5592 5593 5595 5596 5597 5598 5599 5600 5600 5601 5603 5605 5607 5608 5609 5610 5610 5610 5610 5610 5610 5610 5610 5610 5610 5610 5610 5611 5611 5612 5612 5611 5611 5611 5610 5610 5609 5609 5609 5609 5609 5609 5608 5608 5607 5606 5605 5604 5603 5602 5601 5600 5599 5598 5597 5596 5594
5568 5567 5567 5567 5567 5568 5568 5569 5569 5569 5568 5568 5568 5569 5571 5572 5573 5574 5574 5575 5576 5576 5576 5577 5579 5581 5582 5583 5584 5585 5586 5587 5588 5589 5591 5592 5593 5594 5596 5597 5599 5601 5602 5602 5603 5603 5604 5604 5604 5604 5605 5605 5604 5604 5604 5605 5605 5605 5605 5604 5604 5604 5604 5604 5603 5603 5603 5603 5603 5603 5602 5601 5600 5599 5598 5597 5596 5595 5594 5593 5592 5590 5589 5588 5587
5558 5558 5557 5557 5558 5558 5558 5559 5559 5559 5558 5558 5559 5559 5560 5562 5563 5564 5565 5565 5566 5566 5567 5567 5568 5570 5572 5574 5576 5577 5578 5579 5580 5582 5583 5584 5586 5587 5589 5591 5592 5594 5595 5595 5596 5596 5597 5598 5598 5598 5599 5599 5598 5598 5598 5599 5599 5599 5598 5598 5598 5598 5598 5598 5598 5598 5598 5598 5598 5597 5596 5595 5594 5593 5592 5591 5590 5588 5587 5586 5585 5583 5582 5580 5579
5549 5548 5547 5547 5547 5548 5548 5548 5549 5550 5549 5549 5549 5550 5551 5552 5553 5555 5555 5556 5556 5557 5557 5558 5559 5560 5562 5564 5566 5569 5570 5572 5573 5574 5575 5577 5578 5580 5582 5584 5585 5587 5588 5588 5588 5590 5591 5592 5592 5592 5592 5592 5592 5592 5592 5593 5592 5592 5592 5592 5592 5592 5592 5592 5592 5592 5592 5592 5592 5591 5590 5589 5588 5587 5586 5585 5584 5582 5580 5579 5577 5576 5574 5572 5571
5539 5538 5538 5537 5538 5538 5538 5539 5540 5540 5540 5541 5542 5542 5542 5542 5543 5544 5545 5546 5547 5547 5548 5549 5550 5551 5552 5554 5556 5559 5561 5564 5566 5567 5568 5569 5571 5573 5575 5577 5578 5580 5581 5581 5582 5583 5584 5585 5585 5585 5586 5586 5586 5586 5587 5587 5586 5586 5586 5587 5587 5587 5587 5587 5587 5587 5586 5586 5586 5585 5584 5584 5583 5582 5580 5579 5577 5576 5574 5572 5570 5568 5567 5565 5563
5529 5528 5528 5528 5528 5528 5529 5530 5530 5530 5530 5532 5533 5533 5533 5532 5533 5533 5534 5535 5537 5538 5539 5540 5541 5543 5544 5545 5546 5548 5552 5555 5558 5560 5561 5563 5565 5567 5569 5570 5571 5573 5574 5575 5575 5577 5578 5578 5579 5579 5580 5580 5580 5581 5581 5581 5581 5581 5581 5581 5581 5581 5581 5581 5581 5581 5581 5580 5580 5579 5579 5578 5577 5576 5575 5573 5571 5569 5567 5566 5564 5562 5560 5558 5557
5519 5519 5519 5518 5518 5518 5518 5519 5519 5519 5519 5520 5522 5523 5523 5522 5522 5522 5523 5524 5526 5528 5529 5531 5532 5534 5535 5537 5538 5539 5542 5546 5549 5551 5553 5556 5558 5560 5562 5563 5564 5566 5567 5568 5569 5570 5571 5572 5573 5573 5574 5574 5574 5575 5575 5575 5575 5576 5576 5576 5576 5576 5576 5576 5576 5575 5575 5575 5574 5574 5574 5573 5572 5570 5569 5567 5566 5564 5562 5560 5558 5556 5554 5552 5550